| time (UTC) | temp F | wind direction | speed MPH | gust MPH | rain 1hr in | rain 24hr in | rain mn in | humidity % | barometer mb |
| 20260903182511 | 69 | 250 | 0.0 | 7.0 | 0.00 | 0.19 | 0.17 | 89 | 1016.2 |
| 20260903182010 | 69 | 283 | 2.0 | 8.0 | 0.00 | 0.19 | 0.17 | 89 | 1016.3 |
| 20260903181511 | 69 | 273 | 2.0 | 8.0 | 0.00 | 0.19 | 0.17 | 89 | 1016.4 |
| 20260903181013 | 69 | 229 | 1.0 | 8.0 | 0.00 | 0.19 | 0.17 | 88 | 1016.4 |
| 20260903180510 | 69 | 178 | 1.0 | 4.0 | 0.00 | 0.19 | 0.17 | 87 | 1016.3 |
| 20260903180010 | 69 | 231 | 0.0 | 5.0 | 0.00 | 0.19 | 0.17 | 87 | 1016.4 |
| 20260903175511 | 69 | 298 | 1.0 | 5.0 | 0.00 | 0.19 | 0.17 | 87 | 1016.3 |
| 20260903175009 | 69 | 240 | 0.0 | 5.0 | 0.00 | 0.19 | 0.17 | 86 | 1016.3 |
| 20260903174509 | 70 | 243 | 1.0 | 9.0 | 0.00 | 0.19 | 0.17 | 86 | 1016.3 |
| 20260903174009 | 70 | 347 | 1.0 | 9.0 | 0.00 | 0.19 | 0.17 | 86 | 1016.4 |
| 20260903173508 | 70 | 169 | 1.0 | 4.0 | 0.00 | 0.19 | 0.17 | 85 | 1016.3 |
| 20260903173008 | 70 | 324 | 1.0 | 8.0 | 0.00 | 0.19 | 0.17 | 85 | 1016.4 |
| 20260903172508 | 70 | 5 | 0.0 | 10.0 | 0.00 | 0.19 | 0.17 | 85 | 1016.5 |
| 20260903172010 | 70 | 256 | 0.0 | 13.0 | 0.00 | 0.19 | 0.17 | 85 | 1016.6 |
| 20260903171507 | 70 | 92 | 3.0 | 13.0 | 0.00 | 0.19 | 0.17 | 85 | 1016.6 |
| 20260903171007 | 70 | 199 | 0.0 | 8.0 | 0.00 | 0.19 | 0.17 | 85 | 1016.5 |
| 20260903170507 | 70 | 312 | 2.0 | 8.0 | 0.00 | 0.19 | 0.17 | 85 | 1016.5 |
| 20260903170011 | 70 | 80 | 2.0 | 9.0 | 0.00 | 0.19 | 0.17 | 85 | 1016.4 |
| 20260903165507 | 70 | 315 | 2.0 | 9.0 | 0.00 | 0.19 | 0.17 | 84 | 1016.3 |
| 20260903165006 | 70 | 167 | 1.0 | 10.0 | 0.00 | 0.19 | 0.17 | 84 | 1016.2 |
| 20260903164506 | 70 | 317 | 1.0 | 10.0 | 0.00 | 0.19 | 0.17 | 84 | 1016.2 |
| 20260903164007 | 70 | 196 | 1.0 | 6.0 | 0.00 | 0.19 | 0.17 | 84 | 1016.2 |
| 20260903163508 | 70 | 211 | 1.0 | 9.0 | 0.00 | 0.19 | 0.17 | 84 | 1016.3 |
| 20260903163010 | 71 | 355 | 1.0 | 9.0 | 0.00 | 0.19 | 0.17 | 83 | 1016.5 |
| 20260903162507 | 71 | 146 | 1.0 | 12.0 | 0.00 | 0.19 | 0.17 | 83 | 1016.4 |
| 20260903162005 | 71 | 317 | 4.0 | 10.0 | 0.00 | 0.19 | 0.17 | 82 | 1016.6 |
| 20260903161514 | 71 | 76 | 2.0 | 10.0 | 0.00 | 0.19 | 0.17 | 82 | 1016.6 |
| 20260903161005 | 71 | 327 | 2.0 | 8.0 | 0.00 | 0.19 | 0.17 | 81 | 1016.6 |
| 20260903160505 | 71 | 213 | 1.0 | 9.0 | 0.00 | 0.19 | 0.17 | 81 | 1016.5 |
| 20260903160004 | 71 | 257 | 0.0 | 8.0 | 0.00 | 0.19 | 0.17 | 81 | 1016.4 |
| 20260903155503 | 71 | 156 | 2.0 | 13.0 | 0.00 | 0.19 | 0.17 | 80 | 1016.4 |
| 20260903155004 | 71 | 35 | 2.0 | 8.0 | 0.00 | 0.19 | 0.17 | 80 | 1016.3 |
| 20260903154503 | 71 | 323 | 2.0 | 9.0 | 0.00 | 0.19 | 0.17 | 80 | 1016.3 |
| 20260903154003 | 71 | 348 | 2.0 | 11.0 | 0.00 | 0.19 | 0.17 | 80 | 1016.4 |
| 20260903153503 | 71 | 286 | 2.0 | 11.0 | 0.00 | 0.19 | 0.17 | 80 | 1016.5 |
| 20260903153004 | 71 | 109 | 1.0 | 8.0 | 0.00 | 0.19 | 0.17 | 81 | 1016.5 |
| 20260903152503 | 71 | 360 | 2.0 | 13.0 | 0.00 | 0.19 | 0.17 | 81 | 1016.5 |
| 20260903152005 | 71 | 241 | 3.0 | 13.0 | 0.00 | 0.19 | 0.17 | 81 | 1016.4 |
| 20260903151502 | 71 | 317 | 3.0 | 14.0 | 0.00 | 0.19 | 0.17 | 81 | 1016.5 |
| 20260903151002 | 72 | 297 | 2.0 | 14.0 | 0.00 | 0.19 | 0.17 | 80 | 1016.6 |
| 20260903150502 | 72 | 113 | 4.0 | 14.0 | 0.00 | 0.19 | 0.17 | 81 | 1016.6 |
| 20260903150003 | 72 | 225 | 4.0 | 15.0 | 0.00 | 0.19 | 0.17 | 81 | 1016.6 |
| 20260903145501 | 72 | 323 | 3.0 | 15.0 | 0.00 | 0.19 | 0.17 | 81 | 1016.6 |
| 20260903145102 | 72 | 252 | 2.0 | 13.0 | 0.00 | 0.19 | 0.17 | 81 | 1016.5 |
| 20260903144600 | 72 | 340 | 4.0 | 13.0 | 0.00 | 0.19 | 0.17 | 81 | 1016.5 |
| 20260903144102 | 71 | 284 | 2.0 | 10.0 | 0.00 | 0.19 | 0.17 | 82 | 1016.4 |
| 20260903143559 | 71 | 229 | 2.0 | 8.0 | 0.00 | 0.19 | 0.17 | 82 | 1016.4 |
| 20260903143107 | 71 | 178 | 2.0 | 14.0 | 0.00 | 0.19 | 0.17 | 82 | 1016.5 |
| 20260903142559 | 71 | 317 | 4.0 | 14.0 | 0.00 | 0.19 | 0.17 | 81 | 1016.5 |
| 20260903142059 | 71 | 238 | 4.0 | 16.0 | 0.00 | 0.19 | 0.17 | 81 | 1016.5 |
| 20260903141610 | 71 | 56 | 3.0 | 10.0 | 0.00 | 0.19 | 0.17 | 82 | 1016.6 |
| 20260903141058 | 71 | 261 | 4.0 | 10.0 | 0.00 | 0.19 | 0.17 | 82 | 1016.6 |
| 20260903140557 | 71 | 298 | 3.0 | 14.0 | 0.00 | 0.19 | 0.17 | 82 | 1016.6 |
| 20260903140101 | 71 | 329 | 5.0 | 14.0 | 0.00 | 0.19 | 0.17 | 83 | 1016.6 |
| 20260903135556 | 71 | 322 | 3.0 | 13.0 | 0.00 | 0.19 | 0.17 | 83 | 1016.5 |
| 20260903135056 | 71 | 88 | 2.0 | 15.0 | 0.00 | 0.19 | 0.17 | 83 | 1016.6 |
| 20260903134559 | 71 | 295 | 3.0 | 15.0 | 0.00 | 0.19 | 0.17 | 83 | 1016.6 |
| 20260903134055 | 70 | 279 | 3.0 | 12.0 | 0.00 | 0.19 | 0.17 | 83 | 1016.5 |
| 20260903133555 | 70 | 323 | 4.0 | 12.0 | 0.00 | 0.19 | 0.17 | 83 | 1016.5 |
| 20260903133055 | 70 | 133 | 3.0 | 10.0 | 0.00 | 0.19 | 0.17 | 83 | 1016.4 |
| 20260903132556 | 70 | 210 | 2.0 | 12.0 | 0.00 | 0.19 | 0.17 | 83 | 1016.4 |
| 20260903132059 | 70 | 321 | 3.0 | 13.0 | 0.00 | 0.19 | 0.17 | 84 | 1016.4 |
| 20260903131607 | 70 | 151 | 3.0 | 13.0 | 0.00 | 0.19 | 0.17 | 84 | 1016.3 |
| 20260903131054 | 70 | 157 | 2.0 | 12.0 | 0.00 | 0.19 | 0.17 | 84 | 1016.4 |
| 20260903130554 | 70 | 342 | 3.0 | 19.0 | 0.00 | 0.19 | 0.17 | 85 | 1016.4 |
| 20260903130056 | 70 | 213 | 7.0 | 19.0 | 0.00 | 0.19 | 0.17 | 84 | 1016.5 |
| 20260903125554 | 70 | 360 | 3.0 | 19.0 | 0.00 | 0.19 | 0.17 | 84 | 1016.4 |
| 20260903125056 | 70 | 232 | 2.0 | 13.0 | 0.00 | 0.19 | 0.17 | 84 | 1016.3 |
| 20260903124553 | 70 | 30 | 2.0 | 10.0 | 0.00 | 0.19 | 0.17 | 83 | 1016.3 |
| 20260903124052 | 70 | 309 | 5.0 | 13.0 | 0.00 | 0.19 | 0.17 | 81 | 1016.2 |
| 20260903123614 | 71 | 327 | 3.0 | 14.0 | 0.00 | 0.19 | 0.17 | 81 | 1016.1 |
| 20260903123059 | 71 | 311 | 7.0 | 14.0 | 0.00 | 0.19 | 0.17 | 81 | 1016.2 |
| 20260903122553 | 71 | 154 | 3.0 | 22.0 | 0.00 | 0.19 | 0.17 | 81 | 1016.2 |
| 20260903122051 | 71 | 334 | 5.0 | 22.0 | 0.00 | 0.19 | 0.17 | 81 | 1016.2 |
| 20260903121614 | 71 | 304 | 4.0 | 17.0 | 0.00 | 0.19 | 0.17 | 81 | 1016.2 |
| 20260903121052 | 70 | 281 | 8.0 | 17.0 | 0.00 | 0.19 | 0.17 | 81 | 1016.3 |
| 20260903120553 | 70 | 304 | 5.0 | 17.0 | 0.00 | 0.19 | 0.17 | 80 | 1016.2 |
| 20260903120050 | 70 | 355 | 8.0 | 17.0 | 0.00 | 0.19 | 0.17 | 81 | 1016.3 |
| 20260903115549 | 70 | 347 | 5.0 | 17.0 | 0.00 | 0.19 | 0.17 | 82 | 1016.2 |
| 20260903115048 | 70 | 121 | 4.0 | 18.0 | 0.00 | 0.19 | 0.17 | 83 | 1016.1 |
| 20260903114550 | 70 | 267 | 6.0 | 20.0 | 0.00 | 0.19 | 0.17 | 82 | 1016.1 |
| 20260903114048 | 70 | 238 | 5.0 | 16.0 | 0.00 | 0.19 | 0.17 | 82 | 1016.0 |
| 20260903113548 | 70 | 320 | 6.0 | 16.0 | 0.00 | 0.19 | 0.17 | 82 | 1016.0 |
| 20260903113049 | 70 | 355 | 5.0 | 15.0 | 0.00 | 0.19 | 0.17 | 82 | 1015.8 |
| 20260903112548 | 70 | 340 | 5.0 | 18.0 | 0.00 | 0.19 | 0.17 | 82 | 1015.7 |
| 20260903112046 | 70 | 325 | 6.0 | 18.0 | 0.00 | 0.19 | 0.17 | 83 | 1015.8 |
| 20260903111548 | 70 | 323 | 7.0 | 15.0 | 0.00 | 0.19 | 0.17 | 82 | 1015.8 |
| 20260903111047 | 70 | 5 | 4.0 | 11.0 | 0.00 | 0.19 | 0.17 | 83 | 1015.8 |
| 20260903110549 | 70 | 344 | 6.0 | 15.0 | 0.00 | 0.19 | 0.17 | 83 | 1015.9 |
| 20260903110045 | 70 | 150 | 3.0 | 20.0 | 0.00 | 0.19 | 0.17 | 84 | 1015.9 |
| 20260903105545 | 70 | 251 | 5.0 | 20.0 | 0.00 | 0.19 | 0.17 | 83 | 1015.8 |
| 20260903105045 | 70 | 338 | 4.0 | 16.0 | 0.00 | 0.19 | 0.17 | 84 | 1015.8 |
| 20260903104554 | 70 | 348 | 7.0 | 16.0 | 0.00 | 0.19 | 0.17 | 83 | 1015.8 |
| 20260903104045 | 70 | 312 | 6.0 | 16.0 | 0.00 | 0.19 | 0.17 | 84 | 1015.8 |
| 20260903103544 | 70 | 340 | 4.0 | 16.0 | 0.00 | 0.19 | 0.17 | 85 | 1015.7 |
| 20260903103044 | 70 | 322 | 6.0 | 16.0 | 0.00 | 0.19 | 0.17 | 84 | 1015.8 |
| 20260903102545 | 70 | 315 | 5.0 | 13.0 | 0.00 | 0.19 | 0.17 | 85 | 1015.7 |
| 20260903102042 | 70 | 88 | 5.0 | 20.0 | 0.00 | 0.19 | 0.17 | 85 | 1015.8 |
| 20260903101549 | 70 | 327 | 5.0 | 20.0 | 0.00 | 0.19 | 0.17 | 86 | 1015.7 |
| 20260903101042 | 70 | 346 | 3.0 | 15.0 | 0.00 | 0.19 | 0.17 | 87 | 1015.7 |
| 20260903100542 | 69 | 99 | 4.0 | 14.0 | 0.00 | 0.19 | 0.17 | 86 | 1015.7 |
| 20260903100045 | 70 | 341 | 4.0 | 16.0 | 0.00 | 0.19 | 0.17 | 86 | 1015.7 |
| 20260903095541 | 70 | 192 | 3.0 | 15.0 | 0.00 | 0.19 | 0.17 | 86 | 1015.7 |
| 20260903095044 | 69 | 325 | 2.0 | 15.0 | 0.00 | 0.19 | 0.17 | 86 | 1015.6 |
| 20260903094541 | 69 | 296 | 4.0 | 16.0 | 0.00 | 0.19 | 0.17 | 86 | 1015.6 |
| 20260903094042 | 70 | 349 | 5.0 | 13.0 | 0.00 | 0.19 | 0.17 | 86 | 1015.8 |
| 20260903093541 | 69 | 304 | 6.0 | 18.0 | 0.00 | 0.19 | 0.17 | 86 | 1015.6 |
| 20260903093042 | 69 | 289 | 4.0 | 18.0 | 0.00 | 0.19 | 0.17 | 87 | 1015.5 |
| 20260903092540 | 69 | 339 | 4.0 | 15.0 | 0.00 | 0.19 | 0.17 | 87 | 1015.3 |
| 20260903092039 | 69 | 216 | 2.0 | 10.0 | 0.00 | 0.19 | 0.17 | 89 | 1015.3 |
| 20260903091550 | 69 | 355 | 2.0 | 12.0 | 0.00 | 0.19 | 0.17 | 90 | 1015.3 |
| 20260903091036 | 68 | 64 | 3.0 | 12.0 | 0.00 | 0.19 | 0.17 | 90 | 1015.3 |
| 20260903090535 | 68 | 351 | 3.0 | 15.0 | 0.00 | 0.19 | 0.17 | 91 | 1015.3 |
| 20260903090034 | 68 | 196 | 2.0 | 15.0 | 0.00 | 0.19 | 0.17 | 92 | 1015.4 |
| 20260903085535 | 68 | 329 | 3.0 | 8.0 | 0.00 | 0.19 | 0.17 | 93 | 1015.5 |
| 20260903085032 | 67 | 300 | 1.0 | 6.0 | 0.00 | 0.19 | 0.17 | 94 | 1015.2 |
| 20260903084531 | 67 | 229 | 2.0 | 10.0 | 0.00 | 0.19 | 0.17 | 94 | 1015.2 |
| 20260903084033 | 67 | 18 | 2.0 | 12.0 | 0.00 | 0.19 | 0.17 | 95 | 1015.1 |
| 20260903083531 | 67 | 46 | 3.0 | 10.0 | 0.00 | 0.19 | 0.17 | 95 | 1015.1 |
| 20260903083030 | 66 | 30 | 3.0 | 17.0 | 0.00 | 0.19 | 0.17 | 96 | 1015.0 |
| 20260903082529 | 66 | 207 | 2.0 | 11.0 | 0.00 | 0.19 | 0.17 | 96 | 1015.0 |
| 20260903082028 | 66 | 244 | 3.0 | 11.0 | 0.00 | 0.19 | 0.17 | 97 | 1015.0 |
| 20260903081532 | 66 | 63 | 2.0 | 10.0 | 0.00 | 0.19 | 0.17 | 97 | 1015.0 |
| 20260903081029 | 66 | 276 | 2.0 | 10.0 | 0.01 | 0.19 | 0.17 | 97 | 1014.9 |
| 20260903080532 | 66 | 324 | 1.0 | 5.0 | 0.01 | 0.19 | 0.17 | 97 | 1014.8 |
| 20260903080026 | 66 | 61 | 1.0 | 5.0 | 0.02 | 0.19 | 0.17 | 97 | 1014.8 |
| 20260903075528 | 66 | 170 | 2.0 | 5.0 | 0.04 | 0.19 | 0.17 | 97 | 1015.0 |
| 20260903075028 | 66 | 355 | 1.0 | 7.0 | 0.06 | 0.19 | 0.17 | 97 | 1014.9 |
| 20260903074528 | 66 | 194 | 1.0 | 5.0 | 0.06 | 0.19 | 0.17 | 97 | 1015.0 |
| 20260903074023 | 66 | 137 | 1.0 | 6.0 | 0.06 | 0.19 | 0.17 | 97 | 1014.9 |
| 20260903073525 | 66 | 344 | 2.0 | 6.0 | 0.06 | 0.19 | 0.17 | 97 | 1015.0 |
| 20260903073024 | 66 | 244 | 1.0 | 5.0 | 0.07 | 0.19 | 0.17 | 97 | 1014.9 |
| 20260903072522 | 66 | 242 | 1.0 | 5.0 | 0.08 | 0.19 | 0.17 | 97 | 1014.8 |
| 20260903072142 | 66 | 197 | 2.0 | 6.0 | 0.09 | 0.19 | 0.17 | 97 | 1014.9 |
| 20260903071521 | 65 | 246 | 1.0 | 4.0 | 0.09 | 0.19 | 0.17 | 97 | 1014.9 |
| 20260903071020 | 65 | 5 | 1.0 | 8.0 | 0.08 | 0.18 | 0.16 | 97 | 1014.9 |
| 20260903070519 | 65 | 324 | 2.0 | 8.0 | 0.09 | 0.18 | 0.16 | 97 | 1015.0 |
| 20260903070019 | 65 | 325 | 2.0 | 10.0 | 0.08 | 0.17 | 0.15 | 97 | 1015.1 |
| 20260903065519 | 65 | 5 | 3.0 | 16.0 | 0.06 | 0.14 | 0.12 | 97 | 1015.2 |
| 20260903065018 | 65 | 311 | 3.0 | 16.0 | 0.05 | 0.13 | 0.11 | 97 | 1015.2 |
| 20260903064518 | 65 | 319 | 1.0 | 16.0 | 0.05 | 0.13 | 0.11 | 97 | 1015.0 |
| 20260903064018 | 65 | 288 | 2.0 | 7.0 | 0.04 | 0.13 | 0.10 | 97 | 1015.0 |
| 20260903063517 | 65 | 301 | 2.0 | 9.0 | 0.04 | 0.13 | 0.10 | 97 | 1014.9 |
| 20260903063115 | 65 | 344 | 2.0 | 9.0 | 0.04 | 0.12 | 0.09 | 97 | 1015.0 |
| 20260903062515 | 65 | 263 | 3.0 | 9.0 | 0.04 | 0.11 | 0.09 | 96 | 1014.9 |
| 20260903062015 | 65 | 209 | 2.0 | 9.0 | 0.03 | 0.10 | 0.08 | 96 | 1015.0 |
| 20260903061518 | 65 | 72 | 2.0 | 9.0 | 0.04 | 0.10 | 0.08 | 96 | 1014.7 |
| 20260903061017 | 65 | 208 | 2.0 | 7.0 | 0.05 | 0.10 | 0.08 | 96 | 1014.7 |
| 20260903060513 | 65 | 345 | 1.0 | 5.0 | 0.04 | 0.09 | 0.07 | 96 | 1014.7 |
| 20260903060015 | 65 | 338 | 1.0 | 5.0 | 0.04 | 0.09 | 0.07 | 96 | 1014.8 |
| 20260903055512 | 65 | 121 | 1.0 | 4.0 | 0.04 | 0.09 | 0.06 | 96 | 1014.8 |
| 20260903055012 | 65 | 296 | 0.0 | 6.0 | 0.06 | 0.09 | 0.06 | 96 | 1014.7 |
| 20260903054513 | 65 | 185 | 1.0 | 6.0 | 0.06 | 0.09 | 0.06 | 96 | 1014.7 |
| 20260903054012 | 65 | 215 | 1.0 | 4.0 | 0.06 | 0.09 | 0.06 | 96 | 1014.7 |
| 20260903053510 | 65 | 210 | 1.0 | 5.0 | 0.06 | 0.08 | 0.06 | 96 | 1014.8 |
| 20260903053013 | 65 | 242 | 0.0 | 5.0 | 0.06 | 0.08 | 0.06 | 95 | 1014.7 |
| 20260903052509 | 65 | 270 | 1.0 | 3.0 | 0.05 | 0.07 | 0.05 | 95 | 1014.9 |
| 20260903052009 | 65 | 234 | 0.0 | 4.0 | 0.05 | 0.07 | 0.05 | 95 | 1014.8 |
| 20260903051509 | 65 | 168 | 1.0 | 4.0 | 0.04 | 0.06 | 0.04 | 95 | 1014.9 |
| 20260903051008 | 65 | 221 | 1.0 | 5.0 | 0.03 | 0.06 | 0.03 | 95 | 1014.9 |
| 20260903050509 | 65 | 192 | 0.0 | 5.0 | 0.03 | 0.06 | 0.03 | 95 | 1014.9 |
| 20260903050011 | 65 | 53 | 2.0 | 5.0 | 0.03 | 0.06 | 0.03 | 95 | 1014.9 |
| 20260903045508 | 65 | 40 | 0.0 | 2.0 | 0.02 | 0.05 | 0.02 | 95 | 1014.9 |
| 20260903045009 | 65 | 263 | 0.0 | 4.0 | 0.01 | 0.03 | 0.01 | 94 | 1014.9 |
| 20260903044510 | 65 | 158 | 1.0 | 4.0 | 0.00 | 0.02 | 0.00 | 94 | 1014.8 |
| 20260903044006 | 64 | 184 | 1.0 | 6.0 | 0.00 | 0.02 | 0.00 | 94 | 1014.7 |
| 20260903043505 | 64 | 149 | 0.0 | 6.0 | 0.00 | 0.02 | 0.00 | 94 | 1014.7 |
| 20260903043008 | 64 | 131 | 1.0 | 7.0 | 0.00 | 0.02 | 0.00 | 94 | 1014.8 |
| 20260903042505 | 64 | 231 | 2.0 | 5.0 | 0.00 | 0.02 | 0.00 | 94 | 1014.8 |
| 20260903042005 | 64 | 106 | 1.0 | 4.0 | 0.00 | 0.02 | 0.00 | 94 | 1014.7 |
| 20260903041509 | 64 | 192 | 1.0 | 4.0 | 0.00 | 0.02 | 0.00 | 94 | 1014.7 |
| 20260903041008 | 64 | 181 | 1.0 | 9.0 | 0.00 | 0.02 | 0.00 | 93 | 1014.8 |
| 20260903040505 | 64 | 142 | 2.0 | 9.0 | 0.00 | 0.02 | 0.00 | 93 | 1014.7 |
| 20260903040009 | 64 | 126 | 1.0 | 7.0 | 0.00 | 0.02 | 0.00 | 93 | 1014.9 |
| 20260903035503 | 64 | 227 | 2.0 | 7.0 | 0.00 | 0.02 | 0.00 | 93 | 1014.9 |
| 20260903035004 | 64 | 153 | 1.0 | 9.0 | 0.00 | 0.02 | 0.00 | 93 | 1014.9 |
| 20260903034503 | 64 | 47 | 1.0 | 10.0 | 0.00 | 0.02 | 0.00 | 93 | 1015.0 |
| 20260903034004 | 64 | 71 | 2.0 | 10.0 | 0.00 | 0.02 | 0.00 | 93 | 1014.9 |
| 20260903033502 | 64 | 125 | 1.0 | 6.0 | 0.00 | 0.02 | 0.00 | 92 | 1015.1 |
| 20260903033002 | 64 | 123 | 1.0 | 6.0 | 0.00 | 0.02 | 0.00 | 92 | 1015.2 |
| 20260903032504 | 64 | 84 | 2.0 | 5.0 | 0.00 | 0.02 | 0.00 | 92 | 1015.2 |
| 20260903032100 | 64 | 185 | 2.0 | 7.0 | 0.00 | 0.02 | 0.00 | 92 | 1015.3 |
| 20260903031602 | 64 | 123 | 2.0 | 7.0 | 0.00 | 0.02 | 0.00 | 92 | 1015.2 |
| 20260903031100 | 64 | 110 | 2.0 | 8.0 | 0.00 | 0.02 | 0.00 | 92 | 1015.1 |
| 20260903030559 | 64 | 171 | 1.0 | 8.0 | 0.00 | 0.02 | 0.00 | 91 | 1015.2 |
| 20260903030059 | 63 | 171 | 1.0 | 7.0 | 0.00 | 0.02 | 0.00 | 91 | 1015.3 |
| 20260903025557 | 63 | 195 | 1.0 | 5.0 | 0.00 | 0.02 | 0.00 | 91 | 1015.3 |
| 20260903025057 | 63 | 162 | 2.0 | 7.0 | 0.00 | 0.02 | 0.00 | 91 | 1015.4 |
| 20260903024557 | 63 | 101 | 1.0 | 7.0 | 0.00 | 0.02 | 0.00 | 91 | 1015.3 |
| 20260903024056 | 63 | 46 | 2.0 | 10.0 | 0.00 | 0.02 | 0.00 | 91 | 1015.3 |
| 20260903023558 | 63 | 105 | 1.0 | 10.0 | 0.00 | 0.02 | 0.00 | 90 | 1015.3 |
| 20260903023055 | 64 | 207 | 2.0 | 7.0 | 0.00 | 0.02 | 0.00 | 90 | 1015.5 |
| 20260903022554 | 64 | 207 | 1.0 | 4.0 | 0.00 | 0.02 | 0.00 | 90 | 1015.5 |
| 20260903022053 | 64 | 184 | 0.0 | 6.0 | 0.00 | 0.02 | 0.00 | 90 | 1015.6 |
| 20260903021554 | 64 | 99 | 1.0 | 6.0 | 0.00 | 0.02 | 0.00 | 90 | 1015.8 |
| 20260903021053 | 64 | 81 | 1.0 | 8.0 | 0.00 | 0.02 | 0.00 | 89 | 1015.8 |
| 20260903020552 | 64 | 96 | 1.0 | 8.0 | 0.00 | 0.02 | 0.00 | 89 | 1015.9 |
| 20260903020051 | 64 | 205 | 1.0 | 6.0 | 0.00 | 0.02 | 0.00 | 89 | 1015.9 |
| 20260903015551 | 64 | 315 | 1.0 | 3.0 | 0.00 | 0.02 | 0.00 | 88 | 1015.8 |
| 20260903015051 | 65 | 209 | 0.0 | 9.0 | 0.00 | 0.02 | 0.00 | 88 | 1015.8 |
| 20260903014615 | 65 | 149 | 2.0 | 9.0 | 0.00 | 0.02 | 0.00 | 87 | 1015.9 |
| 20260903014150 | 65 | 92 | 1.0 | 8.0 | 0.00 | 0.02 | 0.00 | 86 | 1016.0 |
| 20260903013551 | 65 | 165 | 2.0 | 6.0 | 0.00 | 0.02 | 0.00 | 84 | 1015.8 |
| 20260903013048 | 64 | 144 | 1.0 | 6.0 | 0.00 | 0.02 | 0.00 | 84 | 1015.8 |
| 20260903012547 | 64 | 127 | 2.0 | 6.0 | 0.00 | 0.02 | 0.00 | 85 | 1016.0 |
| 20260903012047 | 64 | 176 | 1.0 | 5.0 | 0.00 | 0.02 | 0.00 | 85 | 1016.0 |
| 20260903011603 | 64 | 182 | 1.0 | 5.0 | 0.00 | 0.02 | 0.00 | 85 | 1016.0 |
| 20260903011047 | 64 | 200 | 1.0 | 6.0 | 0.00 | 0.02 | 0.00 | 85 | 1016.0 |
| 20260903010546 | 65 | 118 | 1.0 | 6.0 | 0.00 | 0.02 | 0.00 | 84 | 1016.0 |
| 20260903010046 | 65 | 233 | 1.0 | 5.0 | 0.00 | 0.02 | 0.00 | 84 | 1016.1 |
| 20260903005547 | 65 | 300 | 1.0 | 5.0 | 0.00 | 0.02 | 0.00 | 83 | 1016.2 |
| 20260903005043 | 65 | 101 | 1.0 | 5.0 | 0.00 | 0.02 | 0.00 | 82 | 1016.4 |
| 20260903004545 | 65 | 180 | 1.0 | 5.0 | 0.00 | 0.02 | 0.00 | 82 | 1016.5 |
| 20260903004043 | 65 | 191 | 0.0 | 5.0 | 0.00 | 0.02 | 0.00 | 81 | 1016.5 |
| 20260903003543 | 65 | 229 | 2.0 | 5.0 | 0.00 | 0.02 | 0.00 | 81 | 1016.7 |
| 20260903003045 | 65 | 192 | 1.0 | 5.0 | 0.00 | 0.02 | 0.00 | 81 | 1016.8 |
| 20260903002541 | 65 | 221 | 2.0 | 5.0 | 0.00 | 0.02 | 0.00 | 81 | 1016.7 |
| 20260903002041 | 65 | 128 | 1.0 | 10.0 | 0.00 | 0.02 | 0.00 | 81 | 1016.7 |
| 20260903001540 | 65 | 138 | 3.0 | 10.0 | 0.00 | 0.02 | 0.00 | 81 | 1016.8 |
| 20260903001040 | 65 | 215 | 2.0 | 10.0 | 0.00 | 0.02 | 0.00 | 81 | 1016.8 |
| 20260903000540 | 65 | 181 | 2.0 | 10.0 | 0.00 | 0.02 | 0.00 | 81 | 1016.8 |
| 20260903000049 | 65 | 171 | 1.0 | 5.0 | 0.00 | 0.02 | 0.00 | 81 | 1016.8 |
| 20260902235542 | 65 | 105 | 2.0 | 7.0 | 0.00 | 0.02 | 0.00 | 81 | 1016.7 |
| 20260902235037 | 65 | 138 | 2.0 | 7.0 | 0.00 | 0.02 | 0.00 | 80 | 1016.7 |
| 20260902234541 | 65 | 113 | 2.0 | 9.0 | 0.00 | 0.02 | 0.00 | 80 | 1016.8 |
| 20260902234037 | 65 | 250 | 2.0 | 9.0 | 0.00 | 0.02 | 0.00 | 80 | 1016.9 |
| 20260902233537 | 65 | 104 | 1.0 | 5.0 | 0.00 | 0.02 | 0.00 | 80 | 1016.9 |
| 20260902233047 | 65 | 109 | 1.0 | 5.0 | 0.00 | 0.02 | 0.00 | 80 | 1017.0 |
| 20260902232535 | 65 | 158 | 2.0 | 7.0 | 0.00 | 0.02 | 0.00 | 80 | 1017.0 |
| 20260902232039 | 65 | 112 | 2.0 | 6.0 | 0.00 | 0.02 | 0.00 | 80 | 1017.1 |
| 20260902231534 | 65 | 237 | 2.0 | 6.0 | 0.00 | 0.02 | 0.00 | 80 | 1017.3 |
| 20260902231036 | 65 | 122 | 1.0 | 5.0 | 0.00 | 0.02 | 0.00 | 80 | 1017.3 |
| 20260902230538 | 65 | 122 | 1.0 | 7.0 | 0.00 | 0.02 | 0.00 | 80 | 1017.4 |
| 20260902230031 | 65 | 196 | 2.0 | 7.0 | 0.00 | 0.02 | 0.00 | 80 | 1017.4 |
| 20260902225534 | 64 | 127 | 2.0 | 7.0 | 0.00 | 0.02 | 0.00 | 81 | 1017.4 |
| 20260902225034 | 64 | 180 | 1.0 | 4.0 | 0.00 | 0.02 | 0.00 | 82 | 1017.5 |
| 20260902224531 | 64 | 138 | 1.0 | 6.0 | 0.00 | 0.02 | 0.00 | 82 | 1017.5 |
| 20260902224028 | 64 | 107 | 3.0 | 6.0 | 0.00 | 0.02 | 0.00 | 83 | 1017.5 |
| 20260902223528 | 64 | 142 | 1.0 | 5.0 | 0.00 | 0.02 | 0.00 | 84 | 1017.6 |
| 20260902223028 | 64 | 111 | 2.0 | 4.0 | 0.00 | 0.02 | 0.00 | 84 | 1017.5 |
| 20260902222527 | 64 | 130 | 1.0 | 4.0 | 0.00 | 0.02 | 0.00 | 84 | 1017.6 |
| 20260902222026 | 63 | 119 | 1.0 | 4.0 | 0.00 | 0.02 | 0.00 | 85 | 1017.7 |
| 20260902221525 | 63 | 109 | 1.0 | 4.0 | 0.00 | 0.02 | 0.00 | 85 | 1017.8 |
| 20260902221024 | 63 | 121 | 1.0 | 6.0 | 0.00 | 0.02 | 0.00 | 85 | 1017.9 |
| 20260902220524 | 64 | 213 | 1.0 | 5.0 | 0.00 | 0.02 | 0.00 | 85 | 1018.0 |
| 20260902220035 | 64 | 178 | 1.0 | 4.0 | 0.00 | 0.02 | 0.00 | 85 | 1018.0 |
| 20260902215520 | 64 | 152 | 0.0 | 8.0 | 0.00 | 0.02 | 0.02 | 85 | 1018.3 |
| 20260902215021 | 64 | 167 | 1.0 | 8.0 | 0.00 | 0.02 | 0.02 | 85 | 1018.3 |
| 20260902214536 | 65 | 300 | 2.0 | 7.0 | 0.00 | 0.02 | 0.02 | 85 | 1018.3 |
| 20260902214021 | 65 | 186 | 1.0 | 7.0 | 0.00 | 0.02 | 0.02 | 85 | 1018.3 |
| 20260902213520 | 65 | 214 | 2.0 | 8.0 | 0.00 | 0.02 | 0.02 | 84 | 1018.1 |
| 20260902213020 | 65 | 182 | 2.0 | 5.0 | 0.00 | 0.02 | 0.02 | 84 | 1018.1 |
| 20260902212523 | 65 | 146 | 1.0 | 5.0 | 0.00 | 0.02 | 0.02 | 83 | 1018.1 |
| 20260902212020 | 65 | 123 | 1.0 | 4.0 | 0.00 | 0.02 | 0.02 | 83 | 1018.1 |
| 20260902211519 | 65 | 91 | 0.0 | 4.0 | 0.00 | 0.02 | 0.02 | 83 | 1018.1 |
| 20260902211021 | 65 | 162 | 1.0 | 6.0 | 0.00 | 0.02 | 0.02 | 83 | 1018.1 |
| 20260902210520 | 65 | 89 | 1.0 | 6.0 | 0.00 | 0.02 | 0.02 | 83 | 1018.2 |
| 20260902210017 | 65 | 181 | 2.0 | 6.0 | 0.00 | 0.02 | 0.02 | 83 | 1018.3 |
| 20260902205519 | 65 | 158 | 2.0 | 5.0 | 0.00 | 0.02 | 0.02 | 83 | 1018.3 |
| 20260902205017 | 65 | 144 | 0.0 | 6.0 | 0.00 | 0.02 | 0.02 | 83 | 1018.3 |
| 20260902204516 | 65 | 146 | 1.0 | 6.0 | 0.00 | 0.02 | 0.02 | 83 | 1018.3 |
| 20260902204140 | 65 | 184 | 0.0 | 4.0 | 0.00 | 0.02 | 0.02 | 83 | 1018.4 |
| 20260902203515 | 65 | 185 | 1.0 | 8.0 | 0.00 | 0.02 | 0.02 | 83 | 1018.4 |
| 20260902203015 | 65 | 173 | 1.0 | 6.0 | 0.00 | 0.02 | 0.02 | 84 | 1018.4 |
| 20260902202515 | 65 | 146 | 1.0 | 5.0 | 0.00 | 0.02 | 0.02 | 85 | 1018.5 |
| 20260902202015 | 65 | 232 | 1.0 | 8.0 | 0.00 | 0.02 | 0.02 | 85 | 1018.5 |
| 20260902201529 | 65 | 125 | 1.0 | 8.0 | 0.00 | 0.02 | 0.02 | 85 | 1018.5 |
| 20260902201014 | 65 | 149 | 1.0 | 4.0 | 0.00 | 0.02 | 0.02 | 86 | 1018.5 |
| 20260902200514 | 64 | 107 | 0.0 | 4.0 | 0.00 | 0.02 | 0.02 | 85 | 1018.5 |
| 20260902200012 | 64 | 132 | 0.0 | 3.0 | 0.00 | 0.02 | 0.02 | 86 | 1018.6 |
| 20260902195511 | 64 | 150 | 1.0 | 3.0 | 0.00 | 0.02 | 0.02 | 87 | 1018.6 |
| 20260902195011 | 64 | 123 | 0.0 | 3.0 | 0.00 | 0.02 | 0.02 | 87 | 1018.7 |
| 20260902194510 | 64 | 220 | 0.0 | 3.0 | 0.00 | 0.02 | 0.02 | 88 | 1018.8 |
| 20260902194011 | 64 | 120 | 0.0 | 3.0 | 0.00 | 0.02 | 0.02 | 88 | 1018.8 |
| 20260902193511 | 64 | 198 | 0.0 | 2.0 | 0.00 | 0.02 | 0.02 | 88 | 1018.8 |
| 20260902193011 | 64 | 141 | 0.0 | 4.0 | 0.00 | 0.02 | 0.02 | 88 | 1018.8 |
| 20260902192510 | 64 | 192 | 0.0 | 4.0 | 0.00 | 0.02 | 0.02 | 88 | 1018.9 |
| 20260902192010 | 64 | 117 | 0.0 | 4.0 | 0.00 | 0.02 | 0.02 | 89 | 1018.9 |
| 20260902191518 | 64 | 137 | 0.0 | 4.0 | 0.00 | 0.02 | 0.02 | 89 | 1018.8 |
| 20260902191110 | 64 | 188 | 0.0 | 4.0 | 0.00 | 0.02 | 0.02 | 89 | 1018.9 |
| 20260902190511 | 64 | 111 | 0.0 | 4.0 | 0.01 | 0.02 | 0.02 | 89 | 1018.8 |
| 20260902190011 | 64 | 165 | 0.0 | 3.0 | 0.02 | 0.02 | 0.02 | 90 | 1018.8 |
| 20260902185509 | 64 | 175 | 0.0 | 3.0 | 0.02 | 0.02 | 0.02 | 90 | 1018.9 |
| 20260902185010 | 63 | 100 | 0.0 | 3.0 | 0.02 | 0.02 | 0.02 | 90 | 1018.9 |
| 20260902184514 | 63 | 176 | 0.0 | 3.0 | 0.02 | 0.02 | 0.02 | 89 | 1019.0 |
| 20260902184012 | 63 | 119 | 0.0 | 2.0 | 0.02 | 0.02 | 0.02 | 89 | 1019.0 |
| 20260902183509 | 63 | 90 | 0.0 | 2.0 | 0.02 | 0.02 | 0.02 | 88 | 1019.0 |
| 20260902183014 | 64 | 130 | 0.0 | 1.0 | 0.02 | 0.02 | 0.02 | 88 | 1019.0 |